[[{"header":{"parameterUnit":"m.s-1","parameterCategory":1,"la1":30.2991,"la2":30.254,"lo1":-89.0895,"lo2":-89.0444,"dy":0.0017,"dx":0.0017,"nx":28,"ny":28,"refTime":"2024-07-22T21:00:00:Z","depth":0,"parameterNumber":2,"parameterNumberName":"U-component_of_WINDS"},"data":[0,0,0,0,0,0,0,0,0,0,0,0,0,0,0,0,0,0,0,0,0,0,0,0,0,0,0,0,0,0,0,0,0,0,0,0,0,0,0,0,0,0,0,0,0,0,0,0,0,0,0,0,0,0,0,0,0,0,0.7231,0.7231,0,0.7235,0.7235,0.7235,0.724,0.724,0.724,0.7241,0.7242,0.7242,0.7242,0,0,0,0,0,0,0,0,0,0,0,0,0,0.7226,0.7226,0.7231,0.7231,0.7231,0.7235,0.7235,0.7235,0.724,0.724,0.724,0.7241,0.7242,0.7242,0.7242,0,0,0,0,0,0,0,0,0,0,0,0,0,0.7229,0.7226,0.7231,0.7234,0.7234,0.7235,0.7235,0.7235,0.724,0.724,0.7241,0.7241,0.7242,0.7242,0.7242,0.7238,0,0,0.7242,0.7242,0,0,0,0,0,0,0,0,0.7229,0.7229,0.7233,0.7234,0.7234,0.7237,0.7234,0.7236,0.724,0.7238,0.7241,0.7241,0.724,0.724,0.7241,0.7239,0.7239,0.7242,0.7242,0.7242,0.7242,0,0,0,0,0,0,0,0.7228,0.7229,0.7232,0.7234,0.7234,0.7235,0.7235,0.7234,0.7238,0.7238,0.7239,0.7239,0.724,0.7241,0.7241,0.7239,0.7242,0.7242,0.7242,0.7241,0.7236,0.7235,0,0,0,0,0,0,0.7228,0.7229,0.7232,0.7232,0.7232,0.7235,0.7235,0.7236,0.7238,0.7239,0.7239,0.7239,0.7241,0.7241,0.7241,0.7238,0.7242,0.7241,0.7241,0.7236,0.7235,0.7235,0,0,0,0,0,0,0.7228,0.7228,0.7232,0.7231,0.7231,0.7235,0.7235,0.7236,0.7236,0.7239,0.7239,0.7239,0.7241,0.7241,0.724,0.7238,0.7241,0.7241,0.7236,0.7236,0.7235,0.7232,0,0,0,0,0,0,0.7228,0.7228,0.7227,0.7231,0.7231,0.7231,0.7235,0.7236,0.7237,0.7237,0.7239,0.7239,0.7241,0.724,0.7239,0.7238,0.7241,0.7236,0.7236,0.7235,0.7232,0.7231,0.7231,0,0,0,0,0,0.7228,0.7225,0.7227,0.7228,0.723,0.7231,0.7231,0.7234,0.7236,0.7235,0.7237,0.7239,0.7238,0.7239,0.7239,0.7238,0.7236,0.7236,0.7235,0.7232,0.7231,0.7231,0,0,0,0,0,0,0.722,0.7225,0.7228,0.7226,0.7228,0.7232,0.7231,0.7233,0.7234,0.7234,0.7237,0.7237,0.7236,0.7237,0.7238,0.7235,0.7237,0.7237,0.7235,0.7234,0.7234,0.7234,0.7241,0,0,0,0,0,0.7218,0.7219,0.7224,0.7222,0.7223,0.7227,0.7227,0.723,0.7231,0.7232,0.7233,0.7234,0.7235,0.7234,0.7234,0.7232,0.7233,0.7231,0.723,0.723,0.723,0.723,0.7229,0.7235,0.7235,0.7235,0,0,0.7214,0.7218,0.7218,0.7221,0.7222,0.7223,0.7227,0.7227,0.7228,0.7231,0.7231,0.7232,0.7233,0.7232,0.7231,0.7233,0.7229,0.723,0.7229,0.7229,0.7229,0.7229,0.7228,0.7234,0.7234,0.7234,0,0,0.7208,0.721,0.721,0.7212,0.7215,0.7218,0.7218,0.7222,0.7223,0.7223,0.7226,0.7226,0.7226,0.7227,0.7228,0.7224,0.7226,0.7224,0.7221,0.7221,0.722,0.722,0.7219,0.7219,0.7224,0.7224,0.7224,0,0.7202,0.7204,0.7209,0.721,0.7211,0.7216,0.7216,0.7217,0.722,0.722,0.7222,0.7223,0.7224,0.7224,0.7223,0.7223,0.7223,0.7224,0.722,0.722,0.722,0.7219,0.7219,0.7223,0.7223,0.7223,0.7223,0,0.7198,0.7199,0.7198,0.7203,0.7204,0.7204,0.7208,0.7209,0.7211,0.7214,0.7214,0.7216,0.7217,0.7217,0.7219,0.7217,0.7218,0.722,0.7222,0.7219,0.7218,0.7218,0.7223,0.7223,0.7223,0.7223,0,0,0.7186,0.7194,0.7194,0.7196,0.7201,0.7202,0.7202,0.7205,0.7205,0.7207,0.7208,0.7209,0.7211,0.7212,0.7214,0.7214,0.7211,0.7216,0.7216,0.7215,0.7211,0.7209,0.7209,0.7213,0.7213,0.7213,0.7211,0,0.718,0.7183,0.7188,0.7188,0.719,0.7195,0.7196,0.7198,0.7201,0.7202,0.7205,0.7206,0.7208,0.7209,0.7209,0.7212,0.7211,0.7212,0.7213,0.7213,0.7213,0.7209,0.7207,0.7205,0.721,0.721,0.721,0,0.7174,0.7178,0.7179,0.7185,0.7186,0.7186,0.719,0.7191,0.7194,0.7196,0.7198,0.7201,0.7202,0.7204,0.7206,0.7207,0.7207,0.7209,0.7209,0.7209,0.7212,0.7209,0.7204,0.7204,0.721,0.721,0.721,0,0.7166,0.7171,0.7173,0.7174,0.7181,0.7182,0.7184,0.7188,0.719,0.7193,0.7194,0.7196,0.7197,0.7199,0.7203,0.7204,0.7204,0.7206,0.7205,0.7205,0.7205,0.7205,0.72,0.7205,0.7205,0.7205,0.7205,0,0.716,0.7161,0.7169,0.717,0.7171,0.7177,0.7178,0.7181,0.7184,0.7186,0.719,0.7191,0.7196,0.7198,0.7201,0.7202,0.7202,0.7204,0.7204,0.7203,0.7203,0.7204,0.7204,0.7205,0.7205,0.7205,0.7205,0,0.7151,0.7157,0.7159,0.7166,0.7168,0.7169,0.7174,0.7176,0.7179,0.7181,0.7182,0.7187,0.719,0.7194,0.7197,0.7199,0.7199,0.72,0.7198,0.7199,0.7198,0.7199,0.7194,0.7194,0.7199,0.7199,0.7199,0,0.7147,0.7148,0.7156,0.7158,0.7161,0.7163,0.7166,0.7172,0.7174,0.7179,0.7179,0.7182,0.7185,0.7189,0.7193,0.7195,0.7197,0.7195,0.7197,0.7196,0.7197,0.7197,0.7198,0.7194,0.7194,0.7194,0.7194,0,0.7139,0.7143,0.7146,0.7151,0.7154,0.7158,0.7162,0.7163,0.717,0.7172,0.7175,0.7177,0.7182,0.7185,0.7188,0.7191,0.7194,0.7194,0.7194,0.7193,0.7192,0.7193,0.7198,0.7194,0.7194,0.7194,0.7194,0.7194,0.7133,0.7134,0.7141,0.7145,0.7149,0.7153,0.7155,0.7159,0.7163,0.7167,0.717,0.7174,0.7178,0.7183,0.7186,0.7188,0.7189,0.7189,0.7189,0.7189,0.7189,0.7192,0.7189,0.7189,0.7189,0.7189,0.7189,0,0.7126,0.7131,0.7134,0.7141,0.7144,0.7148,0.7153,0.7156,0.7159,0.7163,0.7167,0.7171,0.7174,0.7179,0.7183,0.7184,0.7185,0.7185,0.7185,0.7185,0.7188,0.7188,0.7183,0.7183,0.7183,0.7183,0.7183,0.7183,0.7123,0.7126,0.713,0.7136,0.714,0.7144,0.7147,0.7151,0.7155,0.716,0.7163,0.7167,0.7171,0.7176,0.7179,0.718,0.7182,0.718,0.7182,0.7184,0.7185,0.7185,0.7185,0.7181,0.7181,0.718,0.718,0.718]},{"header":{"parameterUnit":"m.s-1","parameterCategory":1,"la1":30.2991,"la2":30.254,"lo1":-89.0895,"lo2":-89.0444,"dy":0.0017,"dx":0.0017,"nx":28,"ny":28,"refTime":"2024-07-22T21:00:00:Z","depth":0,"parameterNumber":3,"parameterNumberName":"V-component_of_WINDS"},"data":[0,0,0,0,0,0,0,0,0,0,0,0,0,0,0,0,0,0,0,0,0,0,0,0,0,0,0,0,0,0,0,0,0,0,0,0,0,0,0,0,0,0,0,0,0,0,0,0,0,0,0,0,0,0,0,0,0,0,0.5047,0.5047,0,0.5035,0.5035,0.5035,0.5064,0.5065,0.5066,0.5067,0.5054,0.5053,0.5052,0,0,0,0,0,0,0,0,0,0,0,0,0,0.5093,0.5092,0.5047,0.5047,0.5046,0.5035,0.5035,0.5035,0.5064,0.5065,0.5066,0.5067,0.5055,0.5053,0.5052,0,0,0,0,0,0,0,0,0,0,0,0,0,0.5076,0.5091,0.5047,0.5059,0.5061,0.5035,0.5035,0.5035,0.5064,0.5065,0.5066,0.5068,0.5055,0.5053,0.5052,0.5013,0,0,0.5046,0.5046,0,0,0,0,0,0,0,0,0.5077,0.5074,0.5058,0.5059,0.506,0.5053,0.5047,0.5028,0.5063,0.5062,0.5067,0.5068,0.5053,0.5051,0.5046,0.5013,0.5012,0.5046,0.5045,0.5044,0.5044,0,0,0,0,0,0,0,0.5078,0.5075,0.5042,0.5057,0.5059,0.5066,0.5065,0.5043,0.505,0.5063,0.5065,0.5063,0.5053,0.5048,0.5046,0.5012,0.5046,0.5045,0.5044,0.5043,0.4948,0.4946,0,0,0,0,0,0,0.5078,0.5076,0.5043,0.5042,0.5072,0.5064,0.5063,0.5053,0.505,0.5051,0.5062,0.5064,0.505,0.5048,0.5046,0.5001,0.5044,0.5043,0.5042,0.4949,0.4948,0.4946,0,0,0,0,0,0,0.5079,0.5075,0.5043,0.5059,0.5056,0.5061,0.5051,0.5052,0.5047,0.505,0.5051,0.5055,0.5051,0.5048,0.5021,0.5001,0.5042,0.504,0.4951,0.4949,0.4947,0.4912,0,0,0,0,0,0,0.508,0.5075,0.506,0.5059,0.5055,0.5019,0.5049,0.5051,0.5044,0.5047,0.5043,0.5044,0.5052,0.5024,0.502,0.4999,0.5039,0.4953,0.495,0.4947,0.4915,0.4909,0.4903,0,0,0,0,0,0.5081,0.505,0.5059,0.5055,0.5037,0.5018,0.5016,0.5025,0.5042,0.5028,0.503,0.5044,0.5004,0.5021,0.5016,0.4995,0.4954,0.4951,0.4948,0.4917,0.491,0.4903,0,0,0,0,0,0,0.5049,0.5051,0.506,0.5028,0.5023,0.5023,0.5005,0.5017,0.5006,0.501,0.5022,0.5021,0.4992,0.4991,0.501,0.4958,0.4982,0.4978,0.496,0.4953,0.4948,0.4949,0.5037,0,0,0,0,0,0.5038,0.5022,0.5025,0.4996,0.4993,0.4999,0.4991,0.4999,0.4994,0.4992,0.4992,0.4986,0.4972,0.4962,0.495,0.4915,0.4914,0.4898,0.4892,0.4887,0.4884,0.4866,0.4858,0.4935,0.4935,0.4935,0,0,0.5015,0.5014,0.5004,0.4989,0.4986,0.497,0.4997,0.4978,0.4966,0.4989,0.4964,0.4964,0.4958,0.4927,0.4913,0.4925,0.4862,0.4883,0.488,0.4878,0.4861,0.4854,0.4848,0.4933,0.4933,0.4934,0,0,0.4966,0.4963,0.4939,0.4936,0.4931,0.4935,0.4929,0.4928,0.4929,0.4904,0.492,0.4906,0.4882,0.4877,0.4872,0.4821,0.4834,0.4816,0.4787,0.4769,0.4763,0.4758,0.474,0.4734,0.4813,0.4812,0.4812,0,0.4938,0.4914,0.4926,0.4906,0.4899,0.4919,0.4895,0.4891,0.4882,0.4877,0.489,0.4861,0.4858,0.4827,0.4814,0.4809,0.4803,0.4817,0.4763,0.4758,0.4753,0.4737,0.473,0.481,0.4811,0.4811,0.4811,0,0.4881,0.4864,0.4846,0.4837,0.4828,0.4806,0.4814,0.4804,0.4813,0.4816,0.4791,0.4788,0.4776,0.4769,0.4777,0.4739,0.4746,0.4761,0.4785,0.4744,0.4728,0.4722,0.4807,0.4808,0.4809,0.4809,0,0,0.4811,0.4809,0.4802,0.4798,0.4794,0.4781,0.4761,0.4749,0.474,0.4733,0.4716,0.4695,0.4709,0.4703,0.4711,0.4695,0.4656,0.4712,0.4712,0.4702,0.4614,0.4603,0.4596,0.4664,0.4663,0.4662,0.4615,0,0.4762,0.4727,0.4737,0.4702,0.4687,0.4705,0.4687,0.4683,0.4685,0.4673,0.4675,0.466,0.468,0.4676,0.4661,0.4663,0.4638,0.4667,0.4649,0.4648,0.465,0.4588,0.4576,0.4531,0.4609,0.4608,0.4607,0,0.4701,0.4692,0.4656,0.4655,0.4649,0.4633,0.4623,0.461,0.4606,0.4609,0.4602,0.4613,0.4593,0.4616,0.4589,0.4608,0.4601,0.4601,0.46,0.4599,0.4625,0.4585,0.4517,0.4511,0.4597,0.4598,0.4599,0,0.4654,0.4633,0.4609,0.4605,0.4603,0.4591,0.459,0.4587,0.4579,0.4571,0.4566,0.4555,0.4549,0.454,0.4548,0.4564,0.4519,0.4543,0.4521,0.4521,0.4511,0.4512,0.4441,0.4506,0.4506,0.4506,0.4506,0,0.46,0.4577,0.4588,0.4573,0.4548,0.4559,0.4534,0.4535,0.4532,0.4517,0.4532,0.4518,0.4529,0.4516,0.4522,0.4499,0.4496,0.4498,0.45,0.4497,0.4497,0.4493,0.4496,0.4504,0.4505,0.4505,0.4505,0,0.4543,0.455,0.4525,0.4525,0.4525,0.4506,0.4506,0.4493,0.4496,0.4478,0.4474,0.448,0.4465,0.4472,0.4457,0.4461,0.4431,0.4437,0.4433,0.4434,0.4412,0.4414,0.4337,0.4328,0.4398,0.4397,0.4396,0,0.4508,0.4491,0.449,0.4481,0.4479,0.4465,0.4458,0.4468,0.446,0.4453,0.444,0.4427,0.4418,0.4394,0.4396,0.4385,0.4391,0.4365,0.4389,0.4387,0.4391,0.4392,0.4391,0.436,0.4359,0.4358,0.4358,0,0.4445,0.445,0.4438,0.4428,0.4419,0.4412,0.4405,0.4398,0.4408,0.4398,0.4383,0.4376,0.4361,0.4348,0.4338,0.4336,0.4349,0.435,0.4345,0.4341,0.434,0.4341,0.442,0.4352,0.4352,0.4353,0.4353,0.4353,0.4399,0.4385,0.4382,0.4369,0.4366,0.436,0.4347,0.4349,0.4337,0.4326,0.4333,0.4316,0.4312,0.4301,0.4297,0.4285,0.4295,0.4287,0.4285,0.4283,0.428,0.4342,0.4283,0.4283,0.4283,0.4283,0.4283,0,0.4338,0.4337,0.4325,0.4316,0.4306,0.4319,0.4313,0.4303,0.4288,0.4284,0.4274,0.4258,0.4246,0.4247,0.4236,0.4226,0.4231,0.4222,0.4223,0.4223,0.4271,0.4277,0.4218,0.4218,0.4218,0.4218,0.4218,0.4218,0.4304,0.4282,0.4285,0.4261,0.426,0.4244,0.424,0.4234,0.4231,0.4212,0.4202,0.4204,0.4202,0.419,0.418,0.4181,0.4176,0.4165,0.4168,0.4213,0.422,0.4226,0.4232,0.4164,0.4164,0.4122,0.4121,0.4121]}]]